TimeCDT,TemperatureF,Dew PointF,Humidity,Sea Level PressureIn,VisibilityMPH,Wind Direction,Wind SpeedMPH,Gust SpeedMPH,PrecipitationIn,Events,Conditions,WindDirDegrees,DateUTC
12:15 AM,38.5,27.5,65,30.10,10.0,ESE,4.6,-,N/A,,Clear,120,2014-04-23 05:15:00
12:55 AM,38.3,27.9,66,30.10,10.0,East,6.9,-,N/A,,Clear,100,2014-04-23 05:55:00
1:15 AM,37.6,27.1,66,30.10,10.0,ESE,3.5,-,N/A,,Clear,110,2014-04-23 06:15:00
1:35 AM,38.3,26.8,63,30.10,10.0,ESE,3.5,-,N/A,,Clear,110,2014-04-23 06:35:00
1:55 AM,39.2,26.2,60,30.10,10.0,East,6.9,-,N/A,,Clear,100,2014-04-23 06:55:00
2:15 AM,39.0,26.4,61,30.10,10.0,ESE,6.9,-,N/A,,Clear,110,2014-04-23 07:15:00
2:35 AM,38.8,26.1,60,30.11,10.0,ESE,5.8,-,N/A,,Clear,110,2014-04-23 07:35:00
2:55 AM,38.7,26.4,61,30.11,10.0,ESE,4.6,-,N/A,,Clear,120,2014-04-23 07:55:00
3:15 AM,38.5,26.4,62,30.11,10.0,ESE,4.6,-,N/A,,Clear,120,2014-04-23 08:15:00
3:35 AM,37.9,26.6,64,30.11,10.0,SE,4.6,-,N/A,,Clear,130,2014-04-23 08:35:00
3:55 AM,37.4,27.0,66,30.11,10.0,SE,4.6,-,N/A,,Clear,140,2014-04-23 08:55:00
4:15 AM,37.6,26.8,65,30.11,10.0,Calm,Calm,-,N/A,,Clear,0,2014-04-23 09:15:00
4:35 AM,37.0,27.3,68,30.11,10.0,ESE,3.5,-,N/A,,Clear,120,2014-04-23 09:35:00
4:55 AM,36.5,27.7,70,30.11,10.0,Calm,Calm,-,N/A,,Clear,0,2014-04-23 09:55:00
5:15 AM,36.5,27.5,70,30.11,10.0,ESE,3.5,-,N/A,,Clear,110,2014-04-23 10:15:00
5:35 AM,36.9,27.1,68,30.11,10.0,Calm,Calm,-,N/A,,Clear,0,2014-04-23 10:35:00
5:55 AM,36.5,27.5,70,30.11,10.0,Calm,Calm,-,N/A,,Clear,0,2014-04-23 10:55:00
6:15 AM,36.1,27.3,70,30.11,10.0,SSE,3.5,-,N/A,,Clear,150,2014-04-23 11:15:00
6:35 AM,36.5,28.0,71,30.11,10.0,SE,3.5,-,N/A,,Clear,130,2014-04-23 11:35:00
6:55 AM,37.4,27.9,68,30.11,10.0,ESE,4.6,-,N/A,,Clear,120,2014-04-23 11:55:00
7:15 AM,38.1,28.4,68,30.11,10.0,SE,4.6,-,N/A,,Clear,140,2014-04-23 12:15:00
7:35 AM,39.2,28.2,65,30.12,10.0,SE,6.9,-,N/A,,Clear,130,2014-04-23 12:35:00
7:55 AM,40.6,28.2,61,30.12,10.0,SE,6.9,-,N/A,,Clear,140,2014-04-23 12:55:00
8:15 AM,42.1,27.5,56,30.11,10.0,SSE,6.9,-,N/A,,Clear,150,2014-04-23 13:15:00
8:35 AM,42.8,26.8,53,30.11,10.0,SSE,9.2,-,N/A,,Clear,150,2014-04-23 13:35:00
8:55 AM,43.2,26.6,52,30.11,10.0,SSE,11.5,-,N/A,,Clear,160,2014-04-23 13:55:00
9:15 AM,44.1,26.4,50,30.11,10.0,SSE,10.4,19.6,N/A,,Clear,160,2014-04-23 14:15:00
9:35 AM,44.2,26.8,50,30.10,10.0,SSE,11.5,20.7,N/A,,Clear,160,2014-04-23 14:35:00
9:55 AM,45.0,27.1,50,30.11,10.0,SSE,9.2,-,N/A,,Clear,160,2014-04-23 14:55:00
10:15 AM,45.5,27.0,48,30.11,10.0,SE,11.5,-,N/A,,Clear,140,2014-04-23 15:15:00
10:35 AM,45.5,26.6,48,30.12,10.0,SE,12.7,-,N/A,,Clear,140,2014-04-23 15:35:00
10:55 AM,46.0,26.4,46,30.12,10.0,SSE,12.7,-,N/A,,Scattered Clouds,160,2014-04-23 15:55:00
11:15 AM,45.9,26.1,46,30.11,10.0,SSE,9.2,-,N/A,,Scattered Clouds,150,2014-04-23 16:15:00
11:35 AM,46.2,27.0,47,30.11,10.0,SE,13.8,-,N/A,,Overcast,140,2014-04-23 16:35:00
11:55 AM,46.4,26.8,46,30.11,10.0,SE,10.4,-,N/A,,Overcast,140,2014-04-23 16:55:00
12:15 PM,47.3,27.0,45,30.10,10.0,SE,15.0,-,N/A,,Overcast,130,2014-04-23 17:15:00
12:35 PM,49.1,26.8,42,30.09,10.0,SE,11.5,16.1,N/A,,Overcast,130,2014-04-23 17:35:00
12:55 PM,50.0,27.5,42,30.08,10.0,ESE,8.1,17.3,N/A,,Mostly Cloudy,120,2014-04-23 17:55:00
1:15 PM,49.1,26.8,42,30.07,10.0,ESE,12.7,16.1,N/A,,Mostly Cloudy,110,2014-04-23 18:15:00
1:35 PM,49.1,27.7,44,30.07,10.0,ESE,9.2,-,N/A,,Overcast,120,2014-04-23 18:35:00
1:55 PM,49.1,27.1,43,30.07,10.0,ESE,9.2,-,N/A,,Overcast,110,2014-04-23 18:55:00
2:15 PM,49.1,27.9,44,30.05,10.0,SE,12.7,-,N/A,,Overcast,140,2014-04-23 19:15:00
2:55 PM,48.6,28.8,46,30.05,10.0,South,11.5,-,N/A,,Overcast,190,2014-04-23 19:55:00
3:15 PM,47.7,29.8,50,30.05,10.0,South,10.4,-,N/A,,Overcast,190,2014-04-23 20:15:00
3:35 PM,46.4,29.8,53,30.04,10.0,South,16.1,-,N/A,Rain,Light Rain,180,2014-04-23 20:35:00
3:55 PM,44.1,32.5,64,30.04,10.0,South,15.0,20.7,N/A,,Drizzle,180,2014-04-23 20:55:00
4:15 PM,42.1,34.3,74,30.04,10.0,South,12.7,-,N/A,Rain,Rain,170,2014-04-23 21:15:00
4:35 PM,41.4,35.1,78,30.04,10.0,South,15.0,18.4,N/A,,Drizzle,180,2014-04-23 21:35:00
4:55 PM,40.5,35.6,83,30.02,10.0,South,10.4,-,N/A,,Drizzle,170,2014-04-23 21:55:00
5:15 PM,39.6,35.6,86,30.02,7.0,SSE,9.2,-,0.01,Rain,Light Rain,160,2014-04-23 22:15:00
5:35 PM,39.4,36.9,91,30.00,10.0,ESE,8.1,-,0.01,Rain,Light Rain,110,2014-04-23 22:35:00
6:15 PM,40.3,37.0,88,29.97,10.0,ESE,8.1,-,N/A,,Light Drizzle,110,2014-04-23 23:15:00
6:35 PM,40.6,36.9,86,29.98,10.0,ESE,6.9,-,N/A,,Drizzle,110,2014-04-23 23:35:00
6:55 PM,41.0,37.2,86,29.98,10.0,ESE,5.8,-,0.01,Rain,Light Rain,110,2014-04-23 23:55:00
7:15 PM,41.0,37.8,88,29.97,10.0,ESE,6.9,-,N/A,Rain,Light Rain,110,2014-04-24 00:15:00
7:35 PM,41.0,38.8,92,29.97,10.0,ESE,6.9,-,0.01,Rain,Rain,110,2014-04-24 00:35:00
7:55 PM,41.0,38.7,91,29.97,10.0,ESE,5.8,-,0.02,,Light Drizzle,110,2014-04-24 00:55:00
8:15 PM,41.2,37.9,88,29.96,10.0,ESE,8.1,-,N/A,,Overcast,120,2014-04-24 01:15:00
8:35 PM,41.4,37.4,86,29.97,10.0,ESE,6.9,-,N/A,Rain,Rain,120,2014-04-24 01:35:00
8:55 PM,41.0,37.8,88,29.97,10.0,ESE,9.2,-,0.01,Rain,Light Rain,120,2014-04-24 01:55:00
9:15 PM,40.8,38.3,91,29.98,10.0,ESE,8.1,-,0.01,Rain,Light Rain,110,2014-04-24 02:15:00
9:35 PM,40.5,39.2,95,29.98,10.0,ESE,6.9,-,0.03,Rain,Light Rain,120,2014-04-24 02:35:00
9:55 PM,40.6,39.2,95,29.97,10.0,ESE,10.4,-,0.04,,Light Drizzle,110,2014-04-24 02:55:00
10:15 PM,40.6,39.2,95,29.96,10.0,East,10.4,-,N/A,,Overcast,100,2014-04-24 03:15:00
10:35 PM,41.0,39.2,93,29.96,10.0,East,11.5,-,N/A,,Overcast,90,2014-04-24 03:35:00
10:55 PM,41.2,38.1,89,29.97,10.0,East,12.7,18.4,N/A,,Overcast,100,2014-04-24 03:55:00
11:35 PM,41.5,37.6,86,29.96,10.0,ESE,13.8,18.4,N/A,,Overcast,110,2014-04-24 04:35:00